Location: Bois de la Silve
(44.4667°N, 6.7833°E)
Time: 00:19:10
(UTC+00:00)

USA 238 DEB - Pass Details

Date: 31 October 2020
Orbit: 1001 x 1211 km, 63.5° (Epoch: 22 November)

Event Time Altitude Azimuth Distance (km) Brightness Sun altitude
Exits shadow 02:19:06 29° 28° (NNE) 1,847 5.2 -41.0°
Drops below altitude 10° 02:22:16 10° 35° (NE) 2,928 6.5 -40.4°
Sets 02:25:01 0° 37° (NE) 3,919 7.3 -40.0°
